Chandler, OK

1:57 AM CDT on June 29, 2017 (GMT -0500)
Chandler Municipal

Weather History for KCQB - October, 2012

Change the Weather History Date:

Monday, October 15, 2012

  Actual Average (KCUH) Record (KCUH)
Temperature  
Mean Temperature 70 °F -  
Max Temperature 86 °F 75 °F 92 °F (1950)
Min Temperature 53 °F 50 °F 35 °F (1952)
Cooling Degree Days 4    
Growing Degree Days 20 (Base 50)    
Moisture  
Dew Point 53 °F    
Average Humidity 61    
Maximum Humidity 88    
Minimum Humidity 33    
Precipitation  
Precipitation 0.00 in - - ()
Sea Level Pressure  
Sea Level Pressure 30.01 in    
Wind  
Wind Speed 7 mph (SW)    
Max Wind Speed 12 mph    
Max Gust Speed 16 mph    
Visibility 10 miles    
Events      
Averages and records for this station are not official NWS values.
T = Trace of Precipitation, MM = Missing Value Source: NWS Daily Summary

Daily Weather History Graph

Daily Weather History Graph

Search for Another Location

Airport or City:

Trip Planner

Search our weather history database for the weather conditions in past years. The results will help you decide how hot, cold, wet, or windy it might be!

Date:

Astronomy

Oct. 15, 2012 Rise Set
Actual Time 7:34 AM CDT 6:51 PM CDT
Civil Twilight 7:08 AM CDT 7:16 PM CDT
Nautical Twilight 6:38 AM CDT 7:46 PM CDT
Astronomical Twilight 6:09 AM CDT 8:15 PM CDT
Moon 7:44 AM CDT (10/15) 6:54 PM CDT (10/15)
Length of Visible Light 12h 08m
Length of Day
11h 16m
New Moon, 0% of the Moon is Illuminated
Oct 15
New Moon
Oct 21
First Quarter
Oct 29
Full
Nov 6
Last Quarter
Nov 13
New

Hourly Weather History & Observations

Time (CDT) Temp. Heat Index Dew Point Humidity Pressure Visibility Wind Dir Wind Speed Gust Speed Precip Events Conditions
12:15 AM 59.0 °F - 51.8 °F 77% 30.11 in 10.0 mi West 5.8 mph - N/A   Clear
12:35 AM 59.0 °F - 51.8 °F 77% 30.11 in 10.0 mi West 5.8 mph - N/A   Clear
12:55 AM 59.0 °F - 51.8 °F 77% 30.10 in 10.0 mi West 4.6 mph - N/A   Clear
1:15 AM 60.8 °F - 50.0 °F 68% 30.10 in 10.0 mi WSW 5.8 mph - N/A   Clear
1:35 AM 60.8 °F - 50.0 °F 68% 30.10 in 10.0 mi WSW 4.6 mph - N/A   Clear
1:55 AM 59.0 °F - 51.8 °F 77% 30.09 in 10.0 mi WSW 6.9 mph - N/A   Clear
2:15 AM 57.2 °F - 51.8 °F 82% 30.09 in 10.0 mi WSW 6.9 mph - N/A   Clear
2:35 AM 55.4 °F - 51.8 °F 88% 30.09 in 10.0 mi SW 6.9 mph - N/A   Clear
2:55 AM 55.4 °F - 51.8 °F 88% 30.08 in 10.0 mi SW 6.9 mph - N/A   Clear
3:15 AM 55.4 °F - 51.8 °F 88% 30.08 in 10.0 mi SW 6.9 mph - N/A   Clear
3:35 AM 55.4 °F - 51.8 °F 88% 30.07 in 10.0 mi SW 6.9 mph - N/A   Clear
3:55 AM 55.4 °F - 50.0 °F 82% 30.07 in 10.0 mi WSW 6.9 mph - N/A   Clear
4:15 AM 57.2 °F - 50.0 °F 77% 30.06 in 10.0 mi WSW 8.1 mph - N/A   Clear
4:55 AM 57.2 °F - 50.0 °F 77% 30.06 in 10.0 mi SW 6.9 mph - N/A   Clear
5:15 AM 57.2 °F - 50.0 °F 77% 30.06 in 10.0 mi SW 5.8 mph - N/A   Clear
5:35 AM 55.4 °F - 50.0 °F 82% 30.06 in 10.0 mi SW 6.9 mph - N/A   Clear
5:55 AM 55.4 °F - 50.0 °F 82% 30.07 in 10.0 mi WSW 5.8 mph - N/A   Clear
6:15 AM 55.4 °F - 50.0 °F 82% 30.07 in 10.0 mi WSW 5.8 mph - N/A   Clear
6:35 AM 55.4 °F - 50.0 °F 82% 30.06 in 10.0 mi WSW 5.8 mph - N/A   Clear
6:55 AM 55.4 °F - 50.0 °F 82% 30.06 in 10.0 mi WSW 5.8 mph - N/A   Clear
7:15 AM 55.4 °F - 50.0 °F 82% 30.06 in 10.0 mi SW 5.8 mph - N/A   Clear
7:35 AM 55.4 °F - 50.0 °F 82% 30.07 in 10.0 mi SW 5.8 mph - N/A   Clear
7:55 AM 53.6 °F - 50.0 °F 88% 30.07 in 10.0 mi SW 6.9 mph - N/A   Clear
8:15 AM 55.4 °F - 51.8 °F 88% 30.07 in 10.0 mi WSW 5.8 mph - N/A   Clear
8:35 AM 57.2 °F - 51.8 °F 82% 30.07 in 10.0 mi SW 5.8 mph - N/A   Clear
8:55 AM 60.8 °F - 53.6 °F 77% 30.07 in 10.0 mi WSW 4.6 mph - N/A   Clear
9:15 AM 62.6 °F - 51.8 °F 68% 30.08 in 10.0 mi WSW 5.8 mph - N/A   Clear
9:35 AM 64.4 °F - 53.6 °F 68% 30.08 in 10.0 mi WSW 5.8 mph - N/A   Clear
9:55 AM 68.0 °F - 53.6 °F 60% 30.08 in 10.0 mi WSW 8.1 mph - N/A   Clear
10:15 AM 69.8 °F - 55.4 °F 60% 30.08 in 10.0 mi WSW 5.8 mph - N/A   Clear
10:35 AM 71.6 °F - 55.4 °F 57% 30.08 in 10.0 mi North - - N/A   Clear
10:55 AM 73.4 °F - 57.2 °F 57% 30.07 in 10.0 mi WSW 6.9 mph - N/A   Clear
11:15 AM 77.0 °F - 57.2 °F 50% 30.07 in 10.0 mi WSW 6.9 mph - N/A   Clear
11:35 AM 77.0 °F - 55.4 °F 47% 30.06 in 10.0 mi WSW 4.6 mph - N/A   Clear
11:55 AM 80.6 °F 80.5 °F 55.4 °F 42% 30.05 in 10.0 mi North - - N/A   Clear
12:15 PM 80.6 °F 80.3 °F 53.6 °F 39% 30.05 in 10.0 mi WSW 9.2 mph - N/A   Clear
12:35 PM 82.4 °F 81.4 °F 53.6 °F 37% 30.04 in 10.0 mi SW 6.9 mph - N/A   Clear
12:55 PM 82.4 °F 81.4 °F 53.6 °F 37% 30.02 in 10.0 mi SW 9.2 mph - N/A   Clear
1:15 PM 84.2 °F 82.8 °F 53.6 °F 35% 30.01 in 10.0 mi WSW 8.1 mph - N/A   Clear
1:35 PM 84.2 °F 82.8 °F 53.6 °F 35% 30.00 in 10.0 mi SW 8.1 mph - N/A   Clear
1:55 PM 84.2 °F 82.8 °F 53.6 °F 35% 29.98 in 10.0 mi SSW 9.2 mph - N/A   Clear
2:15 PM 86.0 °F 84.2 °F 53.6 °F 33% 29.97 in 10.0 mi WSW 5.8 mph - N/A   Clear
2:35 PM 86.0 °F 84.5 °F 55.4 °F 35% 29.96 in 10.0 mi WSW 6.9 mph 16.1 mph N/A   Clear
2:55 PM 86.0 °F 84.5 °F 55.4 °F 35% 29.95 in 10.0 mi WSW 10.4 mph - N/A   Clear
3:15 PM 86.0 °F 84.5 °F 55.4 °F 35% 29.95 in 10.0 mi North - - N/A   Clear
3:35 PM 86.0 °F 84.5 °F 55.4 °F 35% 29.95 in 10.0 mi WSW 11.5 mph - N/A   Clear
3:55 PM 84.2 °F 82.8 °F 53.6 °F 35% 29.94 in 10.0 mi West 10.4 mph - N/A   Clear
4:15 PM 84.2 °F 82.8 °F 53.6 °F 35% 29.94 in 10.0 mi SW 9.2 mph - N/A   Clear
4:35 PM 84.2 °F 82.8 °F 53.6 °F 35% 29.93 in 10.0 mi North - - N/A   Clear
4:55 PM 84.2 °F 83.0 °F 55.4 °F 37% 29.93 in 10.0 mi SW 9.2 mph - N/A   Clear
5:15 PM 82.4 °F 81.7 °F 55.4 °F 39% 29.92 in 10.0 mi WSW 8.1 mph - N/A   Clear
5:35 PM 82.4 °F 81.7 °F 55.4 °F 39% 29.92 in 10.0 mi SW 5.8 mph - N/A   Clear
5:55 PM 80.6 °F 80.5 °F 55.4 °F 42% 29.92 in 10.0 mi SW 5.8 mph - N/A   Clear
6:15 PM 80.6 °F 80.5 °F 55.4 °F 42% 29.91 in 10.0 mi SSW 4.6 mph - N/A   Clear
6:35 PM 77.0 °F - 59.0 °F 54% 29.91 in 10.0 mi South 4.6 mph - N/A   Clear
6:55 PM 75.2 °F - 55.4 °F 50% 29.91 in 10.0 mi South 4.6 mph - N/A   Clear
7:15 PM 73.4 °F - 55.4 °F 53% 29.90 in 10.0 mi South 5.8 mph - N/A   Clear
7:35 PM 71.6 °F - 55.4 °F 57% 29.91 in 10.0 mi South 5.8 mph - N/A   Clear
7:55 PM 69.8 °F - 55.4 °F 60% 29.91 in 10.0 mi SSW 6.9 mph - N/A   Clear
8:15 PM 69.8 °F - 55.4 °F 60% 29.92 in 10.0 mi SSW 8.1 mph - N/A   Clear
8:35 PM 69.8 °F - 55.4 °F 60% 29.92 in 10.0 mi SSW 6.9 mph - N/A   Clear
8:55 PM 68.0 °F - 55.4 °F 64% 29.92 in 10.0 mi SSW 8.1 mph - N/A   Clear
9:15 PM 69.8 °F - 55.4 °F 60% 29.92 in 10.0 mi SSW 8.1 mph - N/A   Clear
9:35 PM 69.8 °F - 55.4 °F 60% 29.93 in 10.0 mi SSW 10.4 mph - N/A   Clear
9:55 PM 69.8 °F - 55.4 °F 60% 29.93 in 10.0 mi SSW 9.2 mph - N/A   Clear
10:15 PM 68.0 °F - 55.4 °F 64% 29.93 in 10.0 mi SSW 8.1 mph - N/A   Clear
10:35 PM 68.0 °F - 55.4 °F 64% 29.93 in 10.0 mi SSW 8.1 mph - N/A   Clear
10:55 PM 68.0 °F - 55.4 °F 64% 29.92 in 10.0 mi South 8.1 mph - N/A   Clear
11:15 PM 66.2 °F - 55.4 °F 68% 29.92 in 10.0 mi SSW 10.4 mph - N/A   Clear
11:35 PM 66.2 °F - 55.4 °F 68% 29.91 in 10.0 mi South 8.1 mph - N/A   Clear
11:55 PM 64.4 °F - 55.4 °F 73% 29.91 in 10.0 mi South 9.2 mph - N/A   Clear